Theta_e
329 327 328 327 326 326 326 328 328 326 325 323 323 322 320 317 316 314 311 311 312 316 321 320 322 326 326 327 328 328 329 332 335 335 338 342 344 344 342 342 341 342 342 341 341 342 342 342 343 345 347 347 349 350 350 351 352 353 353 354 355 355 354 351 351 351 351 351 350 350 352 354 356 358
329 331 330 329 327 328 326 326 326 326 323 322 323 321 319 320 317 317 313 312 314 315 319 320 319 322 323 325 325 327 327 333 333 333 334 336 340 341 341 341 341 341 341 340 339 340 340 341 341 341 342 343 345 348 348 348 349 350 351 352 353 353 352 351 351 351 351 351 351 350 351 352 353 354
332 330 329 327 326 326 326 324 324 325 324 321 322 319 319 319 319 317 316 312 316 319 315 318 321 321 322 323 324 324 325 329 331 331 332 334 338 341 342 341 340 340 339 338 338 337 337 338 339 339 339 340 342 344 346 346 347 348 349 350 351 350 350 349 350 351 351 351 351 350 350 351 352 352
333 330 328 327 326 325 325 324 324 323 323 323 320 319 319 317 318 318 317 315 314 317 317 318 320 321 321 322 321 322 324 328 331 329 331 333 339 337 339 342 341 339 338 337 337 335 335 336 337 338 338 339 340 342 342 342 344 345 346 347 348 349 348 346 347 349 350 350 349 349 350 350 350 351
331 329 327 326 327 326 325 324 324 323 321 321 320 321 317 317 317 317 316 315 314 316 318 319 319 320 320 319 321 320 321 322 324 329 328 330 333 335 336 340 342 341 338 336 335 335 335 335 335 336 337 338 340 341 343 342 342 343 342 343 344 345 345 344 344 346 348 348 348 348 349 348 348 349
331 330 327 326 327 326 325 325 323 323 322 320 318 317 319 316 317 319 317 316 315 313 316 317 318 318 320 317 320 319 320 321 324 324 325 328 331 333 336 337 340 342 340 336 334 334 334 334 335 335 336 337 338 339 340 340 340 340 339 340 340 340 340 340 341 343 344 346 347 347 347 347 347 348
329 328 328 326 326 327 325 324 323 323 321 320 319 319 319 318 318 318 319 317 315 314 315 317 317 317 318 317 318 320 321 323 323 323 324 327 330 333 335 336 338 341 340 337 335 334 334 334 334 334 335 335 335 336 336 337 337 337 337 337 338 338 337 338 339 341 342 344 345 347 346 346 346 346
328 327 326 326 325 325 324 323 322 322 321 320 320 319 319 318 318 319 319 318 316 316 315 317 317 317 316 317 319 321 322 322 322 324 325 328 329 332 334 335 337 339 338 338 336 335 333 333 333 332 332 332 332 332 332 333 333 333 333 333 334 334 334 334 335 338 338 339 342 344 344 345 343 341
328 327 326 326 325 324 323 322 321 321 320 320 320 319 319 319 319 320 319 319 318 317 316 317 318 318 317 318 318 320 319 320 322 323 324 325 327 330 333 336 337 337 337 338 337 335 334 333 332 332 331 331 331 330 330 329 330 330 330 330 331 332 332 332 331 333 334 335 336 336 338 340 341 341
329 328 327 327 325 324 322 322 322 321 320 320 319 319 319 320 320 318 318 318 318 317 318 317 316 316 315 315 317 318 320 319 319 320 322 325 327 329 331 334 337 338 339 341 343 338 336 334 333 332 332 331 330 329 328 328 327 326 326 325 325 327 329 329 331 331 330 331 333 334 335 336 337 338
329 328 327 326 325 324 323 322 322 321 321 321 320 321 320 320 318 318 318 318 318 319 318 317 316 314 315 316 314 317 320 320 320 319 320 321 325 327 329 330 335 337 339 340 339 340 340 338 336 332 329 330 330 330 328 326 324 324 322 322 321 322 323 324 327 328 328 329 329 329 329 331 335 337
330 329 328 326 325 324 324 323 323 322 321 321 321 321 321 320 319 318 318 318 319 319 317 315 313 314 314 315 316 318 317 316 317 320 320 319 320 322 325 327 329 334 337 338 341 340 339 337 335 331 331 330 330 329 329 329 328 325 323 321 324 324 322 322 324 325 325 324 324 325 326 326 330 333
328 328 327 327 326 328 330 327 325 324 322 322 320 320 320 320 319 319 318 319 320 319 316 314 314 313 312 313 313 313 313 314 314 318 320 320 321 323 323 325 329 332 334 336 339 340 342 341 340 340 338 337 334 332 332 333 333 329 323 322 324 325 324 322 322 323 323 323 323 322 323 325 327 331
326 326 326 328 333 330 327 325 325 323 321 321 322 322 320 320 319 318 318 318 319 317 315 314 312 311 311 312 313 313 314 316 317 317 318 318 320 321 321 322 325 331 334 335 335 338 343 342 341 341 339 340 340 338 336 335 335 333 328 325 324 325 325 322 322 321 322 322 321 321 320 322 325 327
327 327 326 324 327 330 330 330 328 325 322 321 320 319 319 319 321 319 318 318 318 317 316 315 313 312 311 313 314 315 315 316 316 316 317 318 319 318 317 316 322 330 333 334 334 336 341 342 340 341 341 342 341 340 339 336 334 331 329 327 326 325 325 325 324 323 321 320 320 320 320 320 322 323
327 326 325 325 325 325 326 326 325 326 325 322 320 320 319 318 318 319 321 320 317 317 316 315 314 313 312 313 315 315 315 315 316 316 317 317 317 317 317 318 318 325 335 332 332 333 339 341 341 340 342 343 343 343 337 334 333 331 329 328 327 326 325 325 326 326 324 322 322 323 323 322 323 323
325 325 325 325 325 325 329 330 326 324 324 322 320 319 319 319 318 319 318 319 321 321 318 316 315 315 314 314 316 318 317 317 315 316 316 317 318 318 318 319 320 324 330 332 331 331 336 340 339 339 342 343 344 344 336 334 333 331 329 329 328 327 326 325 326 326 325 324 322 323 322 322 322 321
325 325 324 323 324 324 323 323 322 321 321 321 321 321 322 322 323 320 319 318 317 319 320 317 315 317 318 316 318 320 319 317 316 315 315 317 317 318 318 320 322 324 329 329 330 329 333 338 339 338 341 344 344 344 339 332 331 330 328 328 327 326 325 324 325 324 324 324 322 321 320 319 319 320
325 325 325 324 324 323 322 323 323 321 320 319 320 320 320 321 321 322 323 323 322 321 320 318 318 319 320 320 320 319 318 317 317 318 317 318 318 319 321 322 322 323 327 329 329 325 331 338 338 339 341 343 344 346 337 332 330 329 327 327 326 326 324 324 324 323 323 323 322 320 319 318 317 316
324 324 325 324 323 322 322 321 319 320 320 317 318 319 321 321 320 320 318 318 319 320 320 320 321 321 320 316 317 318 317 316 317 318 320 320 319 318 317 316 319 320 324 328 328 326 329 334 335 339 342 342 342 344 346 334 329 328 327 327 326 325 323 323 323 323 323 323 322 320 317 314 313 312
325 325 325 324 323 322 322 322 319 317 316 319 319 319 317 316 315 316 319 318 316 315 313 311 312 312 312 313 313 313 313 316 317 318 317 316 317 316 314 316 317 318 321 325 329 330 329 334 336 337 339 340 340 341 343 345 331 327 325 325 325 323 322 322 321 322 322 322 322 321 319 314 312 313
323 325 332 331 326 324 325 321 318 315 316 318 315 313 313 315 315 316 318 318 317 314 313 313 314 314 315 314 314 314 314 314 315 318 314 316 317 315 315 314 317 318 321 323 332 331 330 334 338 337 336 338 339 341 342 344 341 328 324 324 324 322 321 321 320 321 321 321 321 320 318 314 313 317
322 322 326 329 325 324 323 317 314 310 313 314 312 312 314 315 313 313 314 313 313 314 314 316 318 318 316 319 319 320 315 315 317 321 320 321 318 315 316 317 317 316 320 327 336 330 331 333 335 336 329 330 336 339 341 341 343 338 334 331 328 322 322 321 319 317 318 319 319 319 316 312 314 323
319 319 320 323 320 316 313 310 306 304 305 312 313 315 315 313 310 312 312 314 314 314 315 315 317 318 318 318 318 318 319 321 323 322 322 322 320 318 318 319 318 316 320 329 337 332 334 336 333 338 335 330 329 331 338 339 342 342 338 335 333 326 323 321 317 315 315 316 316 317 314 311 315 325
316 317 317 318 320 313 309 305 302 301 302 306 313 316 314 312 313 309 309 313 314 315 316 317 317 317 317 317 317 317 318 320 321 322 322 323 322 320 319 318 318 319 322 331 334 335 332 334 333 335 335 334 331 330 333 338 339 341 340 340 338 335 329 327 325 324 314 312 312 312 311 312 313 324
314 315 316 318 318 312 306 303 302 300 301 304 314 316 307 306 307 310 314 315 315 314 314 314 315 315 315 315 315 316 317 318 320 320 321 322 322 323 323 321 319 318 320 330 328 337 333 333 334 333 333 332 333 332 330 331 333 340 340 340 342 337 332 332 329 327 321 319 317 314 316 312 314 317
313 315 316 318 320 310 304 301 300 299 302 305 311 306 305 306 308 311 313 314 312 312 313 313 313 314 314 314 314 315 315 316 318 320 322 323 322 323 324 325 324 322 324 330 337 338 336 334 336 334 333 333 332 331 330 331 333 336 337 338 339 335 333 335 330 328 324 322 323 313 311 311 312 315
312 313 314 315 307 301 298 298 299 302 304 312 305 305 307 308 310 312 312 310 310 312 311 311 311 312 313 314 313 314 316 317 318 320 322 323 322 323 324 325 326 325 326 332 337 338 338 335 335 336 336 334 332 330 329 328 333 336 337 338 337 332 332 334 333 331 327 326 323 318 318 315 315 315
314 310 305 302 302 307 301 300 302 305 307 306 307 308 308 311 309 309 309 308 309 308 309 310 311 311 312 313 314 316 316 319 320 321 321 323 323 323 323 324 325 325 327 328 333 338 339 335 331 330 329 330 331 331 331 327 333 336 338 334 333 332 332 333 334 331 327 327 325 320 321 320 318 318
309 307 307 310 311 311 313 315 315 315 314 311 311 311 311 308 308 308 308 307 307 307 308 309 309 310 311 312 314 317 317 316 316 318 319 318 321 322 321 321 321 323 324 326 333 335 336 335 333 331 330 330 332 331 330 327 327 335 337 337 336 334 333 334 335 334 329 327 326 324 324 326 323 320
308 311 315 313 311 311 312 314 313 313 313 312 310 308 308 309 307 308 307 306 306 308 307 308 309 310 311 313 314 313 314 315 316 318 319 317 317 320 322 320 320 321 323 326 334 335 335 334 335 333 329 330 331 332 331 330 328 331 336 337 336 332 332 334 335 335 332 331 330 327 327 328 327 325
307 311 315 313 316 314 311 310 308 308 309 309 309 306 307 308 308 309 309 307 306 306 308 308 309 310 310 310 311 312 313 314 315 317 318 317 315 318 318 318 316 318 321 327 333 337 339 335 335 335 333 332 330 330 330 330 329 330 333 336 336 337 334 333 334 336 335 334 332 329 328 330 329 327
309 309 308 309 309 307 307 306 304 303 303 305 305 305 304 305 304 304 304 302 303 304 306 306 306 307 308 308 310 311 311 312 314 316 316 318 316 315 316 314 314 314 315 317 323 331 335 335 337 335 335 333 333 332 331 329 330 330 331 333 335 336 335 335 336 336 336 334 331 331 330 332 333 331
306 306 304 304 305 305 303 303 303 302 301 302 301 301 304 305 303 303 303 302 302 304 305 305 305 305 306 307 308 309 310 311 313 314 314 316 317 314 313 313 313 314 315 316 318 319 324 330 331 328 325 321 318 317 321 328 329 330 330 331 333 334 336 336 337 337 335 334 332 330 330 331 334 334
304 302 302 302 302 303 303 303 302 302 300 301 300 300 300 301 302 303 302 301 302 304 304 304 305 305 305 306 307 307 309 310 311 312 314 315 316 316 315 313 313 313 313 314 315 318 319 325 326 324 324 324 322 320 318 316 323 329 330 331 332 333 333 336 336 336 336 335 334 331 330 331 332 335
301 301 299 300 301 302 301 302 302 302 300 299 298 298 299 299 301 300 299 300 301 302 302 302 303 303 304 305 306 307 308 309 309 310 311 312 313 314 315 316 316 314 314 313 314 317 318 319 325 324 322 323 322 320 315 313 313 310 321 330 333 333 333 334 334 335 334 333 334 333 329 329 331 334
301 301 300 299 300 300 300 299 300 301 300 299 298 298 298 297 298 298 299 299 301 302 302 302 302 303 303 304 305 306 307 308 307 308 308 310 311 312 312 315 317 316 314 313 315 316 318 318 317 324 325 323 322 320 316 315 310 309 307 312 321 332 333 334 334 333 334 334 334 333 332 332 331 333
299 300 300 301 301 300 301 300 302 300 299 300 298 298 297 297 297 297 298 298 299 300 300 300 301 302 302 303 303 304 306 307 307 307 307 308 308 308 309 311 313 315 315 314 315 316 317 317 317 315 319 324 322 319 313 313 313 311 306 306 313 322 330 333 333 333 333 335 334 335 335 332 332 333
299 300 300 299 300 299 299 299 300 297 296 298 298 298 296 295 296 297 297 297 298 298 298 299 299 301 301 301 303 303 304 305 305 305 306 306 308 307 308 309 311 312 315 315 315 316 317 316 316 317 314 313 317 317 313 310 310 314 310 304 309 316 324 332 333 334 334 333 334 335 334 330 328 327
302 301 299 299 297 298 298 298 296 296 296 296 295 296 294 295 295 296 296 297 297 297 297 298 300 299 299 300 301 302 303 305 305 305 305 305 307 308 307 308 309 310 312 314 314 314 315 316 317 317 318 317 316 316 316 315 315 317 316 312 304 308 312 320 326 330 333 335 334 330 328 329 329 328
300 297 297 297 296 297 297 296 295 296 294 294 294 297 294 293 293 294 295 296 297 295 296 296 297 298 298 299 299 300 301 303 304 305 305 305 306 307 308 308 307 308 309 311 313 314 315 318 322 318 323 321 322 322 317 313 311 313 314 315 308 306 307 310 313 314 314 320 328 331 329 327 328 327
297 296 295 295 295 296 295 295 294 293 292 292 292 293 292 293 293 295 295 296 294 296 295 295 296 298 298 298 298 300 299 300 302 303 304 303 303 304 307 306 305 306 307 307 310 314 318 321 323 320 320 320 318 314 311 311 311 313 314 316 318 312 309 308 309 311 312 312 313 317 323 326 326 325
300 297 297 299 298 296 295 294 292 291 290 291 291 291 290 289 289 290 290 291 292 293 293 294 295 296 297 298 298 299 299 299 300 300 301 302 302 302 303 304 305 306 307 308 310 314 318 319 321 319 317 316 316 315 311 312 313 313 313 314 315 317 318 314 312 312 312 311 311 310 311 316 320 321
297 297 295 295 294 294 293 292 291 290 290 289 290 290 290 288 287 288 289 290 291 291 293 293 294 295 295 297 298 298 299 299 299 299 300 300 301 302 302 304 305 305 306 307 309 312 315 318 318 320 316 315 315 313 311 312 312 313 313 314 315 315 315 317 318 315 316 315 312 311 313 310 310 310
297 296 296 295 294 293 292 291 290 288 288 288 287 288 290 287 289 288 289 290 290 291 292 292 293 294 295 297 296 297 298 300 298 299 300 300 299 300 301 302 302 303 304 306 307 309 312 315 317 317 317 318 316 315 317 315 313 312 313 313 313 315 315 315 314 314 314 315 314 311 311 313 314 313
Wind_Speed
4 3 4 4 4 3 3 2 3 1 1 0 0 1 1 2 4 5 3 5 4 2 2 5 2 5 7 8 8 10 10 13 16 12 12 12 12 15 18 20 20 22 23 23 23 23 24 24 25 26 26 25 25 25 25 25 25 25 25 24 24 22 22 21 21 21 21 21 21 21 21 20 19 17
4 4 3 3 3 3 3 4 2 3 2 1 1 1 2 2 2 2 5 6 2 5 2 2 4 7 10 9 9 8 11 15 18 13 13 14 13 18 20 20 21 21 21 22 23 23 23 24 24 24 25 25 25 25 25 25 25 24 24 25 24 23 22 21 21 21 21 21 21 21 21 21 20 20
4 5 5 4 4 3 3 2 3 3 2 2 2 2 2 2 3 4 3 5 3 2 5 5 6 7 10 10 10 10 10 13 17 14 13 14 18 22 18 21 21 21 21 21 22 22 23 24 24 24 24 24 25 26 26 26 25 25 24 24 24 23 23 22 21 21 21 21 21 21 21 21 21 20
5 5 5 5 4 4 3 3 3 3 3 3 3 3 3 3 3 3 3 8 10 4 6 7 9 8 8 10 11 12 10 11 18 13 13 15 20 16 13 18 20 21 21 22 22 22 22 23 24 24 24 24 24 24 25 25 25 25 25 24 24 23 23 22 21 21 21 21 21 21 21 20 20 19
4 5 5 5 5 4 4 4 5 4 4 3 4 3 4 3 3 3 4 7 10 6 4 6 7 8 8 9 8 12 12 12 11 12 13 15 14 13 12 12 17 20 21 22 22 23 23 23 24 24 24 24 23 24 25 25 25 25 24 24 24 23 23 22 22 22 22 21 21 21 21 20 19 18
4 5 6 5 6 5 5 5 5 5 4 4 3 4 5 5 5 5 4 6 6 11 5 7 5 8 6 10 8 10 13 13 12 13 13 12 13 13 12 11 12 19 20 21 23 23 23 24 24 25 25 24 24 24 25 26 25 25 24 24 24 23 22 22 22 22 22 21 21 21 21 20 19 18
4 4 5 6 6 4 5 6 7 6 6 5 5 6 4 5 6 5 6 5 7 9 9 6 9 8 7 8 12 11 11 11 12 13 13 12 11 11 13 12 11 16 19 21 21 23 23 23 23 24 24 24 24 24 24 25 24 24 24 24 23 23 22 22 22 22 22 21 21 21 21 20 19 17
5 6 6 6 6 5 6 6 7 6 6 6 6 6 6 6 7 7 5 6 7 6 10 8 8 9 9 10 9 10 10 11 11 11 12 12 13 13 12 13 12 14 20 21 21 21 22 23 22 23 23 23 23 23 23 23 23 23 23 23 23 23 22 22 22 22 22 22 21 21 21 20 19 18
6 5 6 7 6 5 7 6 6 7 7 7 6 7 7 7 7 6 6 6 6 8 10 10 7 8 9 9 10 10 10 11 10 10 11 12 13 13 13 11 12 17 20 20 20 20 21 22 22 22 22 22 22 22 22 22 22 23 23 22 22 22 22 21 21 21 22 21 21 21 20 20 19 18
6 5 6 6 6 5 6 7 7 7 8 7 7 8 7 7 6 6 6 6 7 8 9 9 11 7 10 10 8 9 9 10 12 12 12 11 11 11 11 11 10 9 9 9 11 14 17 20 22 22 22 22 22 22 21 22 22 22 22 22 22 22 22 21 21 21 21 21 21 21 20 20 19 19
6 6 6 6 6 6 7 8 8 8 8 8 9 9 8 7 4 6 7 6 7 8 9 9 9 10 8 8 12 10 9 10 10 12 12 12 10 9 10 12 10 9 11 14 18 15 13 15 15 18 22 22 23 22 22 22 23 22 21 21 21 21 21 21 21 21 21 21 21 20 20 19 19 19
6 6 6 6 6 6 7 7 8 8 8 7 7 7 6 6 5 7 6 6 7 8 8 8 10 8 10 9 9 9 9 10 9 7 9 13 14 13 11 11 12 11 11 11 10 12 14 14 16 18 19 21 22 23 22 23 23 23 21 21 21 21 21 21 21 21 21 21 20 20 20 19 19 19
6 6 6 6 6 7 10 12 11 10 9 7 8 8 6 5 7 7 6 7 7 7 7 9 8 9 9 9 10 11 10 11 12 12 11 12 12 12 12 12 11 10 11 11 11 10 9 10 10 9 9 11 17 19 21 17 22 22 21 22 21 21 21 21 21 21 21 20 20 20 20 20 19 19
5 6 6 6 10 11 12 12 12 13 14 13 9 8 6 6 6 6 7 7 7 7 8 9 9 9 10 10 11 12 12 12 12 12 12 13 12 12 12 12 10 9 10 11 12 11 8 9 10 9 10 10 11 10 11 12 15 18 22 22 22 22 22 21 20 20 20 20 20 20 20 19 19 18
7 6 6 5 6 7 7 7 10 11 11 11 11 12 12 10 8 7 8 9 8 8 8 9 9 10 11 12 11 12 14 12 12 12 11 13 12 11 12 14 13 7 9 11 11 11 9 9 10 10 10 11 9 10 11 16 20 20 20 22 23 23 22 21 20 20 20 20 20 20 19 19 19 18
6 7 6 5 4 5 5 6 6 7 9 10 10 11 11 13 14 14 11 9 8 9 9 9 10 10 11 12 11 14 13 14 14 13 13 13 14 13 13 12 13 10 7 9 10 12 9 9 10 10 10 10 9 11 14 18 19 20 21 21 22 22 21 21 21 20 20 20 20 19 19 19 18 18
6 6 6 6 6 5 8 7 5 5 6 8 10 10 12 13 14 13 15 16 12 9 9 10 11 11 11 11 13 14 16 14 15 16 15 13 13 13 13 14 13 13 9 10 11 11 9 8 10 11 10 9 9 11 14 18 19 20 21 21 21 22 21 21 21 21 20 20 20 20 19 19 18 18
6 7 7 7 7 6 5 5 5 4 5 5 5 6 6 6 9 10 13 14 16 14 11 10 11 13 11 13 15 16 16 15 16 16 17 16 15 15 15 15 15 14 9 10 9 11 11 9 9 11 10 9 9 9 12 18 19 20 20 20 21 20 20 20 20 20 20 20 20 20 20 19 18 17
7 6 7 6 7 6 6 6 6 4 5 4 5 6 6 6 6 7 8 7 7 7 7 8 10 13 14 14 15 15 16 16 16 16 19 19 18 17 15 14 15 14 11 11 10 13 10 7 10 10 9 8 9 8 11 16 18 19 19 20 20 20 20 19 20 20 21 21 20 20 19 18 17 16
6 6 6 6 7 6 6 9 11 6 4 4 5 6 6 6 7 8 8 10 11 11 10 9 11 12 16 19 19 18 18 17 17 17 17 16 15 15 15 15 12 12 10 10 11 11 11 7 11 9 8 7 8 8 7 13 18 19 19 19 19 19 19 19 20 20 20 20 20 19 17 16 16 16
5 5 5 5 6 6 6 10 9 3 4 4 4 5 6 6 7 9 8 9 11 12 14 16 19 22 23 24 25 26 27 22 19 16 16 16 14 14 17 14 12 13 9 9 12 12 11 9 9 9 6 7 8 8 8 8 13 18 18 19 19 19 19 19 20 20 20 20 19 18 17 16 15 15
5 6 11 9 6 7 7 11 4 5 4 3 2 2 5 7 8 9 7 7 8 11 14 16 18 20 21 23 25 25 25 25 22 16 19 20 13 15 14 13 12 10 9 12 11 10 12 8 8 9 3 5 5 7 7 8 9 15 16 19 19 19 19 19 20 19 20 19 18 17 17 16 14 9
5 5 6 8 8 7 9 11 3 5 3 2 2 2 4 6 9 8 7 9 11 11 11 11 11 12 16 15 15 17 23 25 23 19 18 15 15 13 13 13 10 9 11 11 12 11 9 10 8 7 3 5 4 5 7 8 7 7 7 9 11 16 18 19 19 19 19 18 17 17 16 16 13 9
5 4 5 6 8 9 8 1 6 4 4 3 2 2 3 6 9 6 8 10 9 11 10 11 12 14 14 14 14 16 18 19 20 19 15 14 14 12 13 13 13 13 9 5 13 11 8 9 8 8 8 5 5 3 6 7 7 7 7 7 7 12 14 14 13 16 16 15 16 15 15 16 15 9
5 6 6 5 7 6 3 3 3 4 6 4 2 3 3 3 8 9 8 10 11 9 10 11 11 12 12 13 13 15 16 16 16 16 15 13 12 12 12 13 13 12 11 6 14 10 9 8 9 6 8 7 3 2 3 6 6 7 7 8 9 6 7 8 7 7 10 13 14 15 15 16 17 13
4 5 5 6 7 6 2 2 2 5 5 6 3 2 6 9 10 8 7 8 7 8 8 8 9 11 12 13 14 16 17 18 18 18 16 12 10 12 12 14 13 13 14 10 15 11 9 8 10 9 7 7 7 5 3 2 3 6 5 6 7 7 9 8 7 7 7 7 8 10 13 17 17 18
5 5 5 6 8 7 6 6 5 6 7 6 4 6 7 7 10 8 5 7 7 7 7 7 9 11 12 13 15 16 18 20 21 20 18 12 8 10 10 12 11 12 8 8 10 11 10 7 7 10 9 8 8 5 5 4 2 2 4 5 5 4 6 6 8 9 8 8 8 11 11 12 15 16
5 5 4 6 11 11 5 3 5 7 7 3 6 5 5 7 8 6 6 6 7 7 7 8 9 11 11 12 13 15 17 19 21 20 18 11 7 8 8 10 13 11 10 7 7 11 9 8 6 7 7 9 10 9 7 2 3 5 7 4 4 5 6 7 7 6 6 6 7 7 7 7 7 8
3 6 10 10 8 2 7 6 5 3 5 6 5 6 7 5 5 5 5 6 7 7 8 9 9 10 11 12 13 14 16 18 18 17 15 14 3 5 6 6 8 8 9 9 6 6 7 4 3 4 3 2 5 4 6 4 5 5 6 7 4 5 7 6 6 8 8 6 9 9 11 11 10 9
8 9 8 4 7 8 5 3 1 0 0 4 6 8 8 3 5 5 6 6 7 8 8 9 9 10 10 11 12 13 15 15 16 17 16 14 10 1 3 4 5 5 7 9 7 1 3 5 5 5 4 5 8 7 6 5 2 4 6 7 4 4 4 6 7 7 8 8 8 10 8 8 11 11
5 6 5 2 5 7 7 6 5 4 4 3 4 5 4 3 5 4 5 6 6 7 8 9 10 10 10 10 11 12 12 13 15 16 16 14 13 11 1 4 3 5 8 10 9 7 4 4 4 6 7 6 5 6 7 6 6 5 6 6 7 6 6 7 6 7 8 8 7 7 7 7 6 7
5 4 4 4 2 4 4 5 5 5 4 4 4 5 5 4 4 6 6 5 4 5 6 7 8 9 10 11 11 11 12 12 13 15 15 13 12 11 10 8 8 6 6 2 4 5 8 8 7 5 8 7 7 5 3 5 6 6 5 6 6 5 6 9 8 7 7 7 7 8 8 8 8 10
4 2 5 5 5 5 5 5 5 5 5 5 5 5 6 5 5 5 6 7 8 7 7 8 9 10 9 10 11 11 12 13 13 13 13 13 11 10 11 12 10 11 9 8 7 5 5 7 8 8 7 3 2 2 6 5 6 5 6 5 6 6 5 7 8 7 7 7 8 8 7 7 7 8
2 4 4 5 5 5 5 5 5 6 5 6 6 6 6 6 6 7 6 6 7 7 8 8 9 9 9 10 11 11 11 12 12 13 14 13 12 11 13 12 11 9 9 8 7 6 7 3 6 4 6 8 10 8 4 3 4 5 4 5 6 7 5 7 7 8 8 9 9 8 8 8 7 7
4 4 4 4 4 4 3 4 4 4 5 5 6 6 6 5 6 7 7 8 7 7 8 8 8 8 9 9 10 11 11 12 12 12 11 11 12 11 11 11 12 12 11 10 10 9 7 5 4 7 3 4 5 5 13 9 1 1 4 5 5 5 4 5 7 7 8 7 6 8 9 7 7 7
4 4 4 5 5 4 4 4 4 4 4 4 5 5 6 6 6 7 7 8 7 7 7 8 9 9 9 9 9 9 10 11 11 12 12 12 12 12 11 11 10 10 9 10 10 9 7 6 3 8 7 5 4 6 2 12 12 5 1 2 4 5 5 5 5 6 7 6 7 8 8 10 9 8
4 3 4 4 3 2 3 3 3 4 4 4 4 5 5 6 6 6 6 7 6 6 7 7 7 8 9 9 9 9 9 10 10 11 12 12 11 10 11 11 11 10 10 10 9 9 8 6 7 5 10 8 8 7 3 2 10 13 4 2 3 1 4 5 5 6 7 9 7 8 9 8 8 8
3 2 3 3 3 3 3 3 3 4 4 4 3 3 5 5 5 5 6 6 7 7 7 7 7 8 8 9 9 10 9 9 9 10 10 11 11 12 11 11 11 10 10 10 10 10 7 5 7 11 3 9 8 6 5 3 4 10 11 2 4 4 2 3 7 8 7 8 10 9 7 7 9 8
2 2 3 4 4 3 4 3 3 4 4 5 5 5 5 5 5 6 6 7 7 7 7 7 8 8 8 8 8 8 9 9 10 10 10 10 10 10 11 11 11 10 10 12 12 12 12 12 12 9 10 5 1 3 8 8 6 3 9 16 3 3 4 4 6 6 7 8 8 6 7 2 3 6
2 3 2 3 3 2 2 2 3 4 5 5 5 5 5 5 6 6 6 7 7 7 7 7 8 8 8 8 8 8 8 9 9 9 9 9 9 9 9 9 9 10 10 12 13 13 13 13 13 11 8 7 8 7 8 11 7 4 10 16 18 10 3 1 1 4 8 9 8 6 8 5 5 3
3 3 2 2 2 2 3 3 3 4 5 5 5 5 5 5 5 6 5 7 7 7 7 7 8 8 8 8 9 8 9 9 9 9 9 9 9 9 11 10 9 10 10 10 11 11 13 11 14 18 12 5 4 3 1 7 12 9 10 9 13 17 18 14 8 6 3 4 2 10 10 9 7 7
4 4 2 2 3 3 4 5 5 5 5 5 5 5 5 5 5 8 7 8 7 7 7 7 8 8 8 8 8 8 8 9 9 9 9 9 10 10 11 9 9 10 9 10 9 9 9 10 10 10 9 8 7 8 12 10 9 8 7 6 7 10 14 17 18 17 12 8 6 4 2 1 3 7
3 4 3 2 3 5 5 5 4 5 5 5 5 4 4 5 5 6 6 7 7 7 7 7 7 7 8 7 7 7 8 9 9 9 9 9 9 10 10 9 8 7 7 7 7 7 7 8 9 9 8 9 9 9 10 9 7 6 7 8 8 6 8 11 15 18 20 19 14 5 2 2 1 2
2 5 3 3 5 5 4 4 5 5 5 5 4 4 5 5 5 5 6 6 6 7 7 7 7 7 8 8 7 8 7 8 8 9 9 9 8 8 8 9 9 8 8 8 8 8 7 6 6 6 8 8 6 8 8 7 7 6 6 7 6 7 9 8 9 10 14 21 22 19 11 6 7 5
4 4 4 3 5 5 5 5 5 4 5 4 4 5 4 4 4 5 5 6 6 7 7 7 7 8 8 7 7 8 8 9 8 7 8 8 8 8 8 9 9 9 9 8 7 8 8 6 5 5 5 5 5 6 6 5 5 5 7 8 9 8 8 8 10 11 11 11 16 19 16 17 23 24
Wind_Direction
228 233 229 216 229 233 212 205 208 200 159 173 182 192 234 217 287 309 295 301 305 288 334 322 318 342 319 312 310 305 296 294 294 291 288 280 272 266 261 256 251 248 247 244 241 238 237 237 236 235 235 235 235 235 235 234 233 233 233 233 233 234 234 233 234 235 235 235 234 235 236 236 237 236
234 237 239 230 231 235 193 208 205 179 180 182 191 215 232 205 222 257 287 288 229 279 300 270 294 319 312 308 303 300 295 293 295 286 283 282 277 272 266 261 257 252 247 244 241 239 237 236 236 235 234 234 234 234 235 235 233 233 234 233 233 234 233 233 233 234 234 235 235 235 236 237 238 238
222 230 233 229 229 227 221 219 217 203 178 189 194 196 189 215 199 234 258 289 256 233 303 292 281 292 301 303 302 298 293 292 294 290 282 280 276 274 270 263 257 253 249 244 241 239 237 236 235 234 233 233 233 233 234 235 233 232 233 234 234 233 233 233 232 233 233 234 235 235 235 237 238 238
219 219 223 228 221 225 218 220 218 224 215 193 191 195 198 229 222 219 237 257 273 252 271 282 291 290 293 299 298 297 296 291 296 294 289 282 279 274 271 265 258 252 248 246 242 239 235 234 234 233 232 232 233 234 235 234 233 231 231 233 234 233 233 233 232 232 233 234 234 235 235 236 237 238
224 218 220 229 226 211 211 222 222 220 222 214 210 206 194 228 240 213 237 259 278 280 228 267 285 290 297 295 290 296 297 297 295 291 289 289 282 275 268 267 261 254 247 245 243 240 236 233 232 232 232 232 231 231 233 233 233 231 231 232 232 232 233 233 232 232 232 233 233 234 234 234 234 235
231 223 222 232 228 210 211 214 217 218 224 222 236 235 212 219 241 225 226 250 265 289 297 290 278 287 287 291 291 294 299 298 296 293 292 287 283 277 271 265 263 257 251 244 241 240 238 235 233 233 234 234 233 231 230 231 231 230 230 230 230 230 230 231 232 231 231 231 231 232 233 233 231 231
231 232 231 232 222 214 216 219 219 213 217 217 220 240 225 232 238 237 223 243 268 277 288 291 296 294 295 288 298 296 288 288 290 290 288 288 285 276 269 265 262 259 254 248 241 238 238 236 234 233 233 232 232 231 230 230 230 229 228 228 228 228 228 229 230 231 231 230 230 231 231 231 230 228
227 228 233 238 229 220 222 224 222 222 218 216 220 227 232 225 243 245 241 232 251 273 286 289 289 294 300 292 284 287 286 289 289 284 286 285 283 280 273 265 261 258 254 249 242 237 235 235 233 231 231 230 230 230 230 230 230 229 227 227 227 227 226 227 228 230 231 231 231 231 231 231 230 227
231 230 226 237 233 228 229 233 230 229 227 227 222 227 229 229 237 242 242 251 248 269 277 284 280 288 286 280 287 289 296 296 290 286 285 289 289 285 276 266 260 257 254 249 242 237 234 233 232 230 229 230 230 230 229 229 229 229 228 226 226 226 225 225 226 228 230 231 232 232 232 232 230 227
235 233 236 239 235 232 230 236 232 230 233 233 230 232 232 231 233 244 253 251 257 259 270 280 291 285 291 296 287 294 295 297 300 297 290 287 283 284 285 273 265 258 251 251 245 240 238 236 233 231 230 230 230 230 229 229 229 229 228 227 225 225 225 224 225 226 229 230 231 231 231 231 229 228
239 239 242 245 239 236 234 238 237 233 233 232 234 233 232 234 227 245 249 251 258 264 275 280 276 286 280 283 300 300 294 289 285 293 299 297 295 292 293 290 278 263 256 248 243 238 230 228 230 231 231 230 229 229 228 229 229 229 228 226 225 225 224 224 224 225 226 228 229 230 229 228 228 228
244 244 244 243 242 239 242 239 243 235 237 235 245 247 240 230 231 246 255 259 259 266 271 277 285 280 289 295 283 290 298 300 293 281 290 296 300 300 293 283 286 279 263 256 250 241 236 234 230 230 230 230 230 228 228 228 228 227 226 225 224 224 223 223 224 224 225 226 226 227 227 225 225 226
245 250 250 249 250 248 250 248 244 239 230 229 235 246 237 229 236 253 258 257 262 266 274 279 275 281 288 290 300 306 306 302 300 301 295 284 280 283 288 287 276 270 268 261 252 244 223 225 225 223 227 230 228 232 229 233 231 229 225 224 224 223 222 221 222 223 224 224 224 224 224 223 223 224
244 241 240 243 245 248 255 263 262 251 244 240 235 241 230 237 245 246 248 256 262 268 271 273 280 286 286 293 298 297 296 294 293 294 292 289 289 287 282 279 271 266 261 257 252 247 227 218 226 218 225 231 219 223 220 223 224 225 223 223 222 222 221 219 219 221 221 222 221 221 221 221 221 221
262 263 254 247 251 255 265 268 264 255 251 251 247 246 248 246 244 254 257 261 262 265 267 273 276 277 284 287 292 294 298 296 291 291 291 286 285 280 285 289 292 259 254 256 250 251 229 213 224 221 222 225 218 216 221 218 219 221 218 217 218 218 217 216 216 217 219 220 219 219 219 219 220 219
249 254 260 257 247 252 252 255 265 269 260 253 254 256 255 255 249 238 238 258 264 261 266 272 273 279 281 289 295 294 295 296 296 290 286 282 279 275 269 266 269 279 270 261 249 249 236 212 221 227 224 222 218 217 217 215 214 216 218 214 214 213 213 213 214 215 217 217 217 217 216 217 217 217
241 247 254 260 253 249 260 263 262 265 274 268 261 260 265 265 260 255 244 238 243 259 269 275 278 276 281 289 287 285 289 293 291 291 284 278 271 264 261 260 265 266 258 265 257 253 244 210 217 228 226 220 217 220 214 211 211 213 214 214 212 211 210 211 212 214 214 214 214 214 214 214 215 214
246 246 246 252 258 255 256 261 263 265 258 265 273 273 265 264 269 262 253 251 250 251 257 259 263 269 273 278 279 283 286 291 288 287 283 279 271 265 257 260 260 262 259 259 265 258 249 222 221 224 229 216 217 217 210 205 208 208 209 211 211 209 209 209 211 212 212 212 212 213 213 212 212 211
254 256 250 245 248 255 258 257 258 259 261 261 267 270 272 274 274 273 274 271 272 274 266 257 262 271 274 272 275 281 284 281 278 274 275 274 271 268 266 260 254 258 250 252 254 256 252 216 223 225 225 215 220 215 216 204 205 207 207 208 209 209 208 208 209 210 211 212 212 211 211 210 208 206
259 258 255 250 251 248 250 261 266 261 247 251 266 274 283 290 283 277 270 270 272 270 268 268 271 278 279 280 280 280 281 282 279 275 272 268 262 258 253 249 250 248 239 226 239 253 254 217 222 228 222 211 221 215 216 206 205 206 206 206 207 207 207 207 208 209 210 211 211 209 207 205 203 201
266 267 257 246 247 250 253 261 270 230 190 237 259 286 294 288 289 288 290 271 263 267 273 276 276 274 274 277 282 284 281 278 277 278 272 259 253 247 243 242 239 241 235 230 224 237 246 228 225 229 216 204 214 215 215 211 204 205 205 205 206 205 206 207 207 208 208 208 207 204 200 198 196 193
280 275 275 269 248 248 259 267 267 175 193 240 278 280 283 297 300 296 301 310 303 297 288 280 278 278 282 285 284 284 284 285 283 281 277 273 252 239 231 235 231 241 232 232 209 217 233 227 221 226 188 200 222 213 214 210 202 203 206 206 203 203 204 205 206 206 206 204 202 200 195 192 182 168
275 278 287 283 275 270 272 285 182 163 173 188 210 226 290 293 291 291 318 311 309 310 308 298 296 293 289 290 293 295 292 289 287 281 274 268 245 229 223 222 221 233 236 223 187 208 222 216 215 200 181 221 236 211 207 204 197 183 191 202 209 208 203 204 204 204 204 201 199 196 190 181 168 175
293 287 290 291 286 292 302 47 116 145 198 168 200 233 278 291 287 303 304 299 295 296 294 291 293 292 294 297 301 307 307 303 300 294 279 272 244 212 214 207 207 219 228 198 177 201 217 208 217 197 203 195 230 211 182 205 199 188 182 185 196 209 208 210 212 210 204 200 197 191 182 173 174 159
285 294 292 291 287 285 267 123 129 160 191 193 203 232 272 268 282 298 293 296 293 290 290 288 293 295 299 305 309 311 310 308 307 302 297 279 235 210 202 202 203 218 225 221 179 192 207 191 207 181 210 216 201 176 214 196 197 191 185 185 197 186 176 197 195 196 202 198 192 183 177 176 181 180
281 278 284 293 297 306 224 240 242 200 199 210 229 242 251 277 295 301 295 294 296 293 293 296 303 303 307 316 319 318 318 318 319 314 311 292 228 217 206 199 199 207 213 210 187 196 198 202 197 187 191 195 224 180 154 217 216 201 184 192 194 179 179 180 184 190 163 149 170 180 184 182 185 190
282 289 288 287 302 312 293 268 217 198 206 219 231 251 285 312 319 315 308 311 308 300 302 311 310 308 315 321 323 323 325 324 325 323 316 299 214 213 218 213 208 214 215 218 198 207 203 213 193 189 193 194 204 196 193 183 218 144 174 193 195 162 180 171 183 184 159 171 171 178 178 185 189 192
273 287 297 300 308 307 315 182 175 191 209 221 227 274 323 342 340 332 321 316 310 313 317 323 317 314 316 319 319 323 324 324 323 321 318 308 199 209 213 219 217 213 217 242 207 211 205 212 199 198 191 186 194 195 200 193 131 168 181 166 165 146 158 182 189 168 146 143 123 147 140 152 191 187
307 304 297 299 303 16 92 119 151 193 240 258 269 316 333 357 346 335 326 325 326 332 334 326 317 317 319 316 312 313 317 318 319 329 336 341 257 200 216 221 222 217 221 241 250 224 221 215 183 138 119 238 220 213 181 181 172 177 170 142 177 184 158 169 175 165 156 158 164 163 180 156 169 190
311 306 315 7 90 84 97 116 118 100 14 348 360 350 351 356 343 331 329 332 339 339 334 327 322 316 313 315 312 317 323 325 328 335 342 347 352 256 194 225 237 237 237 250 269 207 152 194 191 181 172 187 190 198 190 148 168 171 167 182 152 100 182 171 177 174 158 165 169 183 188 184 176 171
332 324 337 78 96 88 70 59 42 26 12 6 349 356 342 348 340 320 331 331 330 328 327 325 322 316 310 310 325 330 326 327 331 340 347 352 356 4 143 179 235 218 220 232 239 214 185 228 217 179 192 201 207 206 193 183 181 172 188 180 155 188 181 176 171 169 176 180 178 167 172 179 183 188
317 305 349 35 58 55 47 37 34 20 12 11 355 344 338 335 333 336 328 318 320 319 314 310 307 314 329 335 330 326 331 333 335 341 344 355 358 11 25 42 15 9 4 326 236 217 207 209 216 199 206 202 201 206 160 182 196 193 190 185 191 192 130 178 176 188 174 164 156 169 184 185 178 185
316 8 36 29 30 36 34 29 27 20 9 1 348 344 339 338 335 341 351 357 347 336 334 337 333 332 332 333 334 334 334 335 334 341 342 350 2 359 26 34 21 17 9 1 340 298 230 210 204 201 215 229 269 202 180 184 218 198 191 184 189 190 177 177 184 178 159 159 183 176 173 192 193 186
5 42 46 34 28 37 37 34 28 17 3 356 354 351 341 342 345 351 352 351 342 338 341 333 335 337 336 336 338 338 337 332 334 343 352 349 350 6 19 21 20 12 14 2 354 350 331 238 140 101 92 81 64 50 16 245 205 194 187 182 185 204 185 172 177 174 172 187 172 169 171 189 197 191
46 51 50 27 27 21 35 48 39 21 2 1 349 345 337 335 346 351 348 349 339 341 337 337 336 336 340 337 337 340 339 338 339 345 350 351 351 1 7 16 16 13 9 3 1 350 339 317 147 114 102 119 99 71 51 33 294 89 181 197 209 203 190 172 172 170 179 178 173 188 195 197 199 196
45 48 64 51 35 24 26 34 27 17 1 354 350 338 346 349 350 351 349 337 335 333 337 339 341 340 340 339 339 339 342 344 348 348 349 355 357 357 357 9 11 10 8 11 1 349 340 334 243 159 160 175 167 164 117 46 58 25 342 226 196 199 188 171 174 175 161 167 186 187 186 196 206 198
67 49 49 63 53 40 30 0 357 356 356 348 354 349 346 343 342 338 330 328 329 336 332 332 335 338 336 339 341 345 345 353 350 345 353 351 353 357 357 356 5 2 10 10 1 357 357 355 335 221 174 178 186 174 94 149 62 55 33 317 310 262 183 168 173 186 187 192 195 192 198 199 209 203
84 59 51 32 37 12 12 4 360 11 360 354 356 353 349 335 328 331 328 341 343 341 337 337 336 336 339 341 347 346 345 349 352 357 355 352 354 356 355 353 355 357 1 3 7 11 6 354 27 22 324 190 183 152 135 42 27 20 13 305 234 281 301 201 190 194 195 198 200 198 193 208 209 202
81 68 55 47 32 26 33 21 19 15 6 360 0 358 352 345 342 342 348 349 342 340 337 341 342 337 337 342 344 345 343 351 0 357 355 353 353 353 353 351 356 353 354 5 7 10 11 21 22 19 24 359 229 132 118 108 64 72 34 38 15 250 259 241 228 204 195 194 204 193 203 198 60 143
75 77 72 62 42 31 32 18 19 19 20 9 357 5 7 358 350 348 349 348 345 341 340 341 339 337 341 346 345 343 346 355 357 354 355 351 351 357 357 348 355 352 358 7 10 11 12 16 13 14 22 38 62 76 92 105 128 100 56 37 31 36 353 301 331 257 218 201 180 178 193 176 177 141
101 88 80 87 59 26 26 16 18 29 28 17 11 14 14 356 355 353 347 350 345 342 343 341 344 343 341 344 348 349 349 349 353 355 357 356 354 357 1 0 7 358 1 9 5 8 13 11 12 4 12 15 360 296 336 72 59 47 55 48 37 41 43 48 61 60 42 347 243 192 186 190 182 164
129 129 131 92 68 28 37 41 32 39 31 25 21 15 1 3 359 355 351 350 347 345 342 344 344 344 341 343 346 347 353 352 350 351 355 358 357 355 2 9 6 357 3 2 352 352 345 358 8 17 17 22 21 46 55 53 65 56 61 54 53 44 51 56 59 60 54 44 28 5 337 254 155 195
130 131 123 95 72 60 58 56 43 42 33 27 26 12 8 359 358 359 355 350 347 345 346 342 342 343 342 338 347 347 350 353 352 349 350 358 0 359 358 358 357 353 356 350 343 344 350 354 5 14 19 31 30 38 51 41 38 46 54 53 46 35 39 44 50 54 55 52 46 43 282 279 326 223
105 124 125 111 90 83 74 65 53 39 38 30 19 14 18 13 3 356 349 346 345 345 337 341 342 344 342 336 343 348 356 353 349 350 352 352 357 358 354 353 357 359 2 3 354 356 351 2 15 6 23 27 23 45 47 40 33 21 40 52 49 45 45 35 34 39 46 42 32 29 39 100 116 79
99 127 135 115 95 89 85 71 61 47 41 29 23 18 22 12 6 352 348 348 348 343 344 343 341 340 340 336 347 355 351 350 350 350 348 351 358 0 1 360 1 1 8 360 360 0 356 353 8 20 34 30 23 43 45 56 46 34 30 38 41 37 41 35 37 35 35 45 24 22 11 52 62 55